Flag for U.S.A. Weather past 2 weeks in Salem, Oregon, U.S.A.

Now
57 °F

Sunny.


Feels Like: 57 °F
Forecast: 45 / 66 °F
Wind: No wind

Location: McNary Field

Current Time: Mar 29, 2015 at 8:25:47 PM

Latest Report: Mar 29, 2015 at 7:56 PM


Visibility: 10 mi

Pressure: 30.14 "Hg

Humidity: 55%

Dew point: 41 °F

Location of SalemLocation

Historic Weather in Salem — Graph

°F

Salem temperature yesterday

Maximum temperature yesterday: 60 °F (at 3:56 PM)
Minimum temperature yesterday: 47 °F (at 5:56 AM)
Average temperature yesterday: 53 °F

Past Weeks' High & Low Weather Summary

 TemperatureHumidityPressure
High71 °F (Mar 26, 4:56 PM)97% (Mar 16, 5:56 AM)30.41 "Hg (Mar 16, 5:56 AM)
Low37 °F (Mar 16, 4:56 AM)30% (Mar 29, 4:56 PM)29.69 "Hg (Mar 15, 9:56 AM)
Average53 °F77%30.12 "Hg
* Reported Mar 14 6:56 PM — Mar 29 6:56 PM, Salem, Weather by CustomWeather, © 2015

Note: Actual official high and low records may vary slightly from our data, if they occured in-between our weather recording intervals... More about our weather records

Advertising

Salem weather history for previous 24 hours

 ConditionsComfort  
Time TempWeatherWind HumidityBarometerVisibility
6:56 PM
Sun, Mar 29
66 °FSunny.No wind33%30.15 "Hg10 mi
5:56 PM68 °FPassing clouds.5 mph33%30.16 "Hg10 mi
4:56 PM68 °FPassing clouds.3 mph30%30.18 "Hg10 mi
3:56 PM68 °FPartly sunny.3 mph31%30.19 "Hg10 mi
2:56 PM67 °FPartly sunny.No wind33%30.22 "Hg10 mi
1:56 PM64 °FSunny.N/A41%30.24 "Hg10 mi
12:56 PM63 °FSunny.No wind52%30.26 "Hg10 mi
11:56 AM61 °FBroken clouds.No wind58%30.28 "Hg10 mi
10:56 AM57 °FSunny.5 mph69%30.30 "Hg10 mi
9:56 AM52 °FSunny.7 mph80%30.31 "Hg10 mi
8:56 AM49 °FSunny.No wind84%30.32 "Hg10 mi
7:56 AM43 °FClear.No wind97%30.30 "Hg10 mi
6:56 AM41 °FClear.5 mph93%30.29 "Hg10 mi
5:56 AM43 °FClear.No wind89%30.29 "Hg10 mi
4:56 AM43 °FClear.3 mph89%30.28 "Hg10 mi
3:56 AM46 °FClear.3 mph86%30.29 "Hg10 mi
2:56 AM45 °FPassing clouds.3 mph90%30.31 "Hg10 mi
1:56 AM47 °FClear.3 mph86%30.33 "Hg10 mi
12:56 AM48 °FOvercast.No wind83%30.33 "Hg10 mi
11:56 PM
Sat, Mar 28
50 °FClear.No wind80%30.32 "Hg10 mi
10:56 PM50 °FClear.No wind83%30.32 "Hg10 mi
9:56 PM52 °FClear.No wind72%30.31 "Hg10 mi
8:56 PM53 °FClear.No wind72%30.32 "Hg10 mi
Weather by CustomWeather, © 2015

See weather overviewHow to use our weather pages